7 * 24
多渠道服务支持
Hi!有什么问题可以问我哦~
RADUGA 15(虹15号)是苏联(CIS独联体前身)于1984年6月22日发射的第一代“虹”系列地球同步轨道通信卫星,隶属于苏联/俄罗斯首个固定通信卫星系列。卫星由应用力学科研生产联合体基于KAUR-3平台研制,配备C频段转发器,可同时支持军事通信与民用电话、电报、电视传输业务,覆盖除极区外的整个东半球,设计在轨寿命3年,是苏联冷战时期卫星通信网络的重要组成部分。
| 数据来源 | 国际轨道数据 |
| 星历时间: | 2026-04-03T22:59:10+0800 12小时前 查看轨道信息 |
| 半长轴: | 42192.252km |
| 偏心率: | 0.0001732 |
| 轨道倾角: | 8.874° |
| 近地点辐角 | 243.624° |
| 升交点赤经 | 312.280° |
| 平近点角 | 314.997° |
| 近地点: | 35806.807km |
| 远地点: | 35821.423km |
| 周期: | 1437.503分钟 |
| 每日圈数: | 1.001737 |